Theta_e
343 345 343 341 340 338 337 335 335 334 334 333 332 333 335 337 338 338 339 339 338 337 335 333 332 332 332 331 331 330 330 330 330 330 331 332 331 331 330 328 328 329 328 323 317 315 316 318 318 317 316 315 317 318 318 318 318 319 319 316 313 312 310 309 309 309 310 310 311 313 311 316 325 325 317 311 310 311 310 310 311 310 310 310 311
343 344 343 340 339 338 335 335 334 335 334 333 332 333 335 337 338 339 339 339 339 338 337 334 333 332 332 331 331 332 331 331 331 331 331 332 332 332 332 331 331 331 332 328 321 317 314 315 316 316 316 314 315 316 317 318 317 317 317 315 312 311 309 308 309 310 311 311 311 312 311 312 318 321 318 314 311 311 311 309 310 309 310 310 310
343 343 342 339 338 337 335 334 334 335 333 333 332 332 335 337 338 339 339 340 339 339 337 335 334 333 332 332 331 332 332 332 332 332 332 332 332 333 333 332 332 331 332 330 326 322 316 313 315 316 315 314 313 314 315 315 315 315 315 313 311 310 310 309 310 312 313 311 310 310 311 312 313 314 315 313 311 311 311 310 310 310 310 310 310
344 342 341 339 337 337 335 335 334 335 333 332 331 332 334 336 338 339 340 340 340 340 339 337 336 335 333 332 332 332 332 332 333 332 332 332 332 333 333 333 333 332 332 331 330 328 321 315 315 316 315 313 312 314 314 314 313 314 313 311 311 311 311 311 311 314 314 313 310 309 309 311 312 312 312 311 310 311 311 310 310 310 309 310 310
343 341 341 338 337 337 336 335 335 335 333 331 331 332 334 336 338 339 340 339 340 340 340 339 338 336 334 333 332 331 332 333 333 333 333 333 333 333 333 333 333 333 333 333 331 330 327 321 316 315 315 313 312 313 313 313 313 312 312 311 312 311 312 312 313 314 316 317 315 310 307 309 312 312 311 310 310 311 311 311 310 310 309 310 310
342 340 340 337 337 337 337 336 336 335 332 331 331 331 333 335 337 339 339 339 340 339 339 339 338 336 335 332 330 331 332 333 332 333 333 333 333 333 333 334 333 333 334 334 333 332 332 329 322 316 315 314 312 313 312 312 312 313 313 313 314 314 315 315 316 316 318 320 319 315 309 307 310 311 311 311 310 312 311 311 311 310 309 309 311
341 339 339 337 337 337 337 337 336 334 332 331 330 330 332 334 336 338 339 339 339 339 337 337 337 335 333 331 330 331 331 331 332 332 332 332 332 332 333 334 333 333 333 334 334 334 333 333 330 321 318 317 312 312 313 313 314 315 315 316 317 319 319 319 320 318 318 321 319 315 310 307 309 310 311 311 310 311 312 311 311 310 310 310 311
340 339 337 337 337 338 338 337 335 332 331 331 330 331 331 332 335 337 337 338 338 337 336 336 335 333 332 331 330 330 329 330 330 331 331 330 330 329 330 332 333 333 333 334 334 334 332 333 333 326 323 320 313 312 315 316 317 317 318 320 321 322 322 324 325 321 318 321 321 317 312 308 308 310 311 312 311 311 311 310 311 310 310 310 310
340 338 336 337 338 338 337 336 333 332 331 331 331 331 331 331 333 334 335 336 336 336 335 334 333 332 331 330 329 328 327 327 328 327 327 327 327 326 327 328 331 332 332 333 332 332 331 330 332 328 327 323 316 314 317 317 319 320 321 323 324 325 325 327 326 323 322 322 324 324 320 312 308 310 311 312 312 311 310 310 311 311 310 310 310
340 337 336 338 338 338 336 334 332 331 331 331 330 330 330 329 330 330 331 334 335 335 334 333 332 331 330 329 328 327 325 325 325 327 328 328 327 326 326 326 328 330 330 329 329 330 330 330 330 329 328 325 318 318 319 319 322 323 324 326 327 329 327 326 326 326 325 324 325 326 325 315 308 310 311 312 312 311 311 310 311 310 310 310 310
339 337 337 339 338 338 335 333 332 331 331 329 329 329 329 327 327 328 329 331 332 334 333 333 331 330 329 327 327 326 325 325 327 329 330 329 328 327 326 326 328 329 329 328 329 329 330 330 330 330 329 325 320 320 323 323 325 326 327 328 330 330 328 328 328 327 325 326 326 325 325 315 307 310 310 312 313 312 312 310 310 310 310 310 310
339 337 338 339 338 337 334 332 332 332 330 329 329 330 330 328 326 327 328 329 331 332 332 331 329 329 327 326 327 325 325 327 329 330 330 330 328 327 326 326 327 328 329 329 330 329 329 329 328 330 328 324 321 320 325 328 328 329 329 331 331 330 329 329 328 327 327 329 327 324 323 313 307 310 310 311 313 312 312 311 310 310 309 310 309
339 338 339 339 338 336 332 332 333 332 332 332 332 332 331 330 327 327 328 328 330 330 330 329 328 327 326 326 326 326 326 329 330 331 331 331 329 327 326 325 325 326 327 327 328 328 328 327 326 327 325 322 322 319 322 330 329 329 331 332 332 330 329 330 328 328 329 330 329 325 321 315 310 308 309 311 312 313 312 311 311 310 309 310 309
339 339 339 339 337 334 332 332 333 333 333 334 334 333 332 330 327 327 328 328 328 328 328 327 327 327 326 326 326 326 328 330 332 333 332 331 329 328 325 325 325 325 326 326 326 326 325 324 323 322 321 321 323 319 319 327 329 329 332 332 332 331 329 330 329 328 329 330 330 327 322 319 315 308 309 311 312 313 312 312 311 310 309 309 309
338 338 339 339 337 334 333 332 333 333 334 334 334 334 333 330 328 327 327 327 327 327 327 328 328 328 327 327 327 327 329 332 333 333 333 330 328 326 325 324 324 324 325 327 327 326 325 323 320 317 317 320 324 320 316 322 328 329 331 332 332 331 329 330 329 328 329 329 329 327 323 319 313 308 308 310 312 313 312 313 311 311 310 309 309
339 338 339 339 338 336 334 332 332 333 333 334 334 333 333 331 329 328 327 327 327 327 328 329 329 329 328 328 328 328 330 332 332 332 332 329 327 325 324 323 323 324 323 325 327 327 326 325 323 318 314 316 321 321 317 318 325 330 331 331 332 330 328 329 329 328 329 329 327 325 323 318 310 307 308 309 312 313 312 312 312 311 310 310 309
339 338 339 339 338 337 335 333 332 332 332 333 333 334 333 331 330 328 328 328 328 329 329 330 330 329 329 329 329 329 330 331 331 331 331 328 326 324 323 323 322 323 322 322 325 326 324 324 325 323 317 313 315 319 318 316 323 330 331 331 332 330 327 328 329 329 328 328 327 323 320 316 309 307 307 309 311 312 312 312 312 311 310 309 309
339 338 338 338 338 337 335 333 333 332 331 332 333 333 333 332 331 330 329 330 330 330 331 331 331 330 329 330 329 330 330 330 330 329 329 328 326 325 324 323 322 322 321 320 321 321 321 323 324 323 321 315 313 317 318 315 321 328 331 332 332 331 329 329 330 329 328 327 326 324 320 314 308 308 307 308 310 312 312 312 311 310 310 309 309
338 337 336 337 338 337 336 334 334 333 332 332 332 333 332 333 333 332 332 332 331 331 332 332 331 331 331 330 330 330 330 330 329 329 328 328 327 326 325 324 323 323 321 319 318 317 319 323 323 322 321 317 313 317 317 315 322 329 331 332 332 332 330 330 330 329 328 327 326 325 322 316 308 307 308 307 309 311 311 311 311 310 309 308 309
338 336 335 336 337 338 337 336 335 334 333 333 332 333 332 333 334 333 334 334 333 334 333 332 332 331 331 330 330 330 330 329 329 329 329 329 328 327 326 325 323 322 321 319 318 317 317 322 324 322 322 319 314 317 317 316 325 330 331 332 331 331 330 330 330 328 328 328 327 324 321 320 314 308 308 308 308 309 311 311 310 309 309 309 308
338 335 335 335 337 338 338 337 335 334 334 334 334 335 334 333 334 334 335 335 334 335 333 332 332 332 331 330 330 330 330 329 329 329 329 329 328 327 326 325 323 322 321 319 319 317 317 321 324 323 322 318 315 318 317 315 325 330 331 332 331 331 330 329 328 328 329 328 326 324 320 318 318 313 308 308 308 309 310 310 310 309 309 309 308
338 336 336 336 337 337 337 337 335 334 334 336 337 336 335 334 334 334 335 334 333 334 334 332 332 332 331 329 329 330 330 329 329 329 329 329 328 327 325 323 321 321 321 320 320 318 319 322 324 323 323 318 315 320 318 315 323 330 331 331 331 330 330 328 329 329 328 327 326 325 319 313 315 313 309 309 308 309 310 310 310 309 309 309 308
338 337 337 336 336 337 337 337 335 335 336 338 338 337 335 334 334 334 334 334 332 333 331 329 329 330 331 329 328 329 329 328 329 330 330 330 329 327 323 320 318 320 321 320 320 319 320 322 324 324 322 317 317 321 320 314 319 328 331 331 331 330 329 329 329 329 328 327 327 325 320 311 310 311 309 310 308 309 309 309 310 309 308 308 308
339 339 338 336 336 336 335 336 336 335 336 338 338 335 334 335 335 334 334 333 333 332 330 327 329 330 329 328 328 328 328 327 327 329 330 328 328 328 323 318 317 321 322 321 321 320 319 321 324 324 320 318 319 322 322 317 319 328 330 330 331 330 329 330 329 329 329 329 328 326 321 312 308 310 310 310 308 309 310 308 309 308 308 307 307
339 339 338 336 336 333 332 334 335 335 335 336 334 331 332 335 334 332 331 332 331 329 329 328 328 331 330 328 328 328 328 327 326 327 328 325 326 328 325 321 320 322 324 323 323 323 320 321 324 323 320 322 324 325 324 322 323 328 328 327 330 331 329 330 330 330 330 330 329 326 320 313 309 309 310 311 310 309 309 308 308 308 307 307 307
340 338 338 337 334 332 332 333 334 336 336 332 331 330 330 330 329 326 326 328 327 326 329 329 328 330 331 329 328 327 328 326 326 329 329 324 325 327 325 324 324 324 325 325 326 324 321 323 324 322 321 325 327 327 327 325 325 327 326 325 330 331 328 331 332 332 331 331 329 325 321 314 309 308 309 310 310 309 309 309 308 308 308 307 307
340 338 338 338 334 333 335 335 336 337 336 334 332 335 333 328 326 324 326 328 328 328 328 328 329 330 330 330 329 328 326 324 326 330 329 325 324 325 325 326 326 326 326 325 325 324 323 324 324 320 322 327 328 328 328 329 329 329 328 328 331 331 330 332 333 332 332 331 329 325 322 317 312 309 308 308 309 309 309 309 309 308 307 307 306
341 339 339 338 336 335 335 335 336 336 336 337 337 339 335 329 327 326 327 329 330 331 329 329 330 330 330 330 330 329 324 323 326 327 325 324 323 324 326 327 326 326 326 325 325 326 325 324 323 321 324 327 327 327 328 330 330 329 329 329 330 330 331 333 333 333 333 331 329 326 325 322 316 311 308 307 307 308 309 309 309 308 307 307 307
341 341 339 338 338 337 336 334 332 334 336 337 337 338 333 327 326 325 328 331 330 332 331 330 330 330 330 330 331 329 323 323 325 325 323 325 325 323 325 326 325 326 328 327 327 328 327 325 323 323 325 326 325 326 328 329 328 327 329 330 329 330 331 332 332 333 333 332 330 329 327 325 320 314 311 309 307 307 307 307 307 307 307 307 307
342 341 339 338 337 334 332 330 331 337 338 336 334 332 331 330 328 325 329 332 330 330 330 330 329 330 331 330 331 328 323 323 325 326 325 328 327 323 325 326 327 328 328 328 328 329 329 327 325 324 325 324 325 326 327 328 327 327 329 330 330 329 330 332 332 332 332 332 331 330 328 326 324 320 317 314 311 308 307 306 306 306 305 306 306
342 340 339 338 336 332 330 331 335 338 335 331 330 330 333 334 333 330 331 332 330 329 329 330 329 329 329 328 329 327 322 323 326 326 325 328 329 326 327 328 328 329 328 329 330 329 330 330 328 327 326 326 327 328 327 328 327 327 328 329 329 328 329 330 331 331 332 332 331 331 329 327 325 323 321 319 317 314 311 308 306 306 305 305 305
342 341 340 338 337 333 329 328 331 334 330 328 329 331 333 335 335 333 333 331 329 329 328 329 328 328 329 328 330 328 322 322 324 324 324 327 329 329 328 327 328 329 329 329 330 330 330 331 330 328 328 328 328 328 326 327 327 326 327 328 328 327 328 328 329 330 331 331 332 332 330 328 326 324 322 322 321 320 318 314 309 306 306 306 306
341 341 339 336 336 335 329 327 330 330 330 329 329 331 334 335 336 333 331 330 328 329 329 330 329 329 331 331 332 329 325 325 324 325 326 326 327 328 329 327 327 329 329 329 329 330 330 331 330 329 329 329 328 328 326 325 325 324 325 326 325 326 328 328 328 329 330 330 331 331 329 328 327 326 325 324 323 322 322 321 317 311 308 307 308
340 339 338 335 336 336 333 333 334 332 331 333 332 332 332 332 332 330 329 329 329 328 328 328 330 330 331 331 330 327 325 327 326 325 327 326 325 326 328 329 328 329 329 328 329 330 329 330 330 329 330 329 329 328 326 326 325 323 323 323 322 323 327 327 327 328 329 330 330 330 329 329 328 327 326 324 323 321 322 324 324 321 316 313 311
337 338 338 337 336 336 335 333 333 332 333 334 331 330 329 329 329 329 329 329 328 328 327 327 328 329 330 330 328 324 325 327 326 325 326 327 326 324 325 327 328 329 329 328 328 329 329 329 329 329 329 329 328 328 327 326 326 325 324 323 321 323 326 326 327 328 328 329 329 329 329 328 328 327 326 325 324 323 323 325 325 325 324 321 318
336 337 337 337 336 335 335 335 335 333 333 333 332 330 330 329 329 329 329 329 329 328 328 328 328 327 328 330 328 325 325 325 323 323 325 326 328 327 326 326 327 328 328 329 329 329 328 328 328 328 328 328 328 327 327 326 326 326 326 326 325 325 326 326 327 328 328 328 329 329 329 328 328 327 327 326 326 326 326 326 325 324 324 325 324
336 337 336 336 334 333 332 333 332 331 332 332 328 327 329 329 329 328 328 329 330 329 328 329 329 326 325 326 326 324 323 322 321 321 324 326 328 329 328 328 327 327 327 328 329 328 327 326 327 327 327 327 326 326 326 326 325 325 328 328 327 327 327 327 328 328 328 328 328 329 328 328 328 327 327 326 327 327 327 327 326 325 324 323 325
337 335 335 336 331 326 324 322 324 326 327 323 319 318 322 325 326 325 327 329 329 328 328 328 328 326 325 324 324 323 321 322 321 322 325 327 329 329 328 328 328 326 325 327 328 328 326 325 326 326 326 327 326 324 324 325 324 323 325 326 324 326 327 327 327 328 327 328 328 328 328 328 328 328 327 326 325 326 327 328 327 326 324 324 325
336 335 335 335 327 320 317 317 319 321 319 316 316 315 317 321 323 324 326 328 328 328 329 328 327 328 327 326 325 324 322 322 322 323 326 327 327 327 326 326 326 325 325 326 327 328 327 326 327 326 326 326 326 324 323 323 323 322 323 323 322 323 326 326 326 327 327 327 326 327 327 327 328 329 328 327 326 325 326 327 328 327 326 326 326
334 333 333 329 323 318 317 317 318 318 316 316 316 316 318 322 323 323 323 325 325 326 328 327 328 329 328 328 327 326 326 325 325 326 326 327 326 325 325 325 325 325 325 325 327 328 328 328 328 327 327 327 326 324 323 323 324 323 323 323 323 324 324 324 324 325 325 324 324 325 326 326 327 328 328 328 327 326 326 327 328 328 328 328 328
332 331 326 321 319 318 317 317 318 317 316 317 317 317 318 320 320 321 321 322 323 323 325 324 326 328 328 329 328 328 327 326 326 326 325 325 325 325 324 324 324 324 323 324 326 328 329 329 329 329 329 328 326 325 324 324 324 324 323 324 324 324 324 324 323 323 322 321 321 322 323 324 326 327 327 327 327 327 327 328 329 328 328 329 329
332 329 322 318 318 318 317 319 319 316 317 318 318 318 318 319 321 322 322 323 323 322 322 322 324 326 327 327 326 327 327 326 325 325 324 323 323 323 323 321 322 322 321 321 325 328 328 329 329 329 329 328 327 325 325 325 326 325 325 325 324 322 322 322 321 321 320 319 319 319 320 321 324 326 327 327 327 327 326 327 328 328 328 329 328
332 327 320 318 319 320 319 321 320 317 318 321 319 320 319 320 322 322 322 322 322 321 319 318 322 324 325 325 325 325 325 325 324 323 322 322 322 321 321 320 320 321 320 321 324 327 327 328 328 328 329 328 327 326 325 325 325 325 325 323 322 322 322 322 322 321 319 318 318 318 319 319 321 324 326 327 327 327 327 327 327 326 328 328 328
330 326 320 318 320 322 321 322 322 316 319 322 321 321 321 321 323 321 321 320 320 321 317 315 318 321 321 322 322 321 321 321 321 321 321 321 322 321 321 319 319 321 322 322 323 324 324 326 327 327 327 327 327 326 326 325 324 324 325 322 322 323 323 323 323 321 319 318 317 317 318 319 319 322 324 325 326 327 326 326 326 325 326 328 328
329 327 323 319 321 324 323 324 322 317 320 324 322 322 322 322 323 321 321 320 320 321 316 310 311 313 313 314 314 315 316 318 320 321 321 321 322 322 321 320 319 320 321 321 321 322 322 324 326 327 327 326 326 326 326 325 324 324 324 323 323 323 323 323 324 322 321 319 318 317 317 318 318 320 322 323 325 325 325 325 325 324 325 326 326
329 329 327 322 322 326 326 325 321 316 320 323 323 323 321 321 322 320 320 321 320 318 312 307 308 309 308 308 310 313 315 316 319 321 321 321 321 321 320 320 321 321 321 321 321 320 321 323 324 324 325 325 325 325 325 324 324 323 323 324 324 324 324 324 322 322 321 320 320 319 318 317 317 318 319 321 322 323 323 323 323 323 323 323 325
328 328 327 324 325 329 330 327 320 315 320 322 322 322 320 319 320 318 319 320 316 312 309 308 307 307 307 307 308 311 313 315 317 319 320 320 320 319 319 319 321 321 321 320 320 319 320 321 322 322 323 323 323 323 324 323 323 323 322 323 323 323 322 322 321 321 320 319 319 320 320 320 319 319 319 319 320 320 321 321 321 320 320 323 326
328 327 327 327 329 332 333 330 321 315 318 320 320 319 318 318 318 319 319 317 311 308 308 308 307 307 306 306 307 308 311 313 314 316 319 320 319 319 319 319 320 321 321 320 319 319 321 322 323 323 322 321 321 322 322 321 322 323 323 323 323 321 320 320 320 320 320 320 320 320 321 321 321 321 320 320 320 321 321 322 322 320 319 323 325
327 327 327 328 331 334 334 331 322 315 317 320 320 318 318 317 318 319 317 313 309 308 309 308 307 307 306 306 306 307 309 311 313 315 317 318 317 317 316 317 318 319 320 320 320 320 322 323 323 323 322 321 320 320 320 320 322 323 323 321 321 319 318 319 320 320 321 321 321 321 320 319 320 321 321 321 321 319 319 321 322 320 320 321 323
327 327 328 329 332 334 333 330 324 318 317 320 321 319 319 317 317 317 314 311 310 309 309 309 308 307 306 306 306 306 306 307 311 314 316 316 316 315 315 316 317 317 318 319 320 321 322 322 322 322 321 321 321 321 321 321 321 322 321 319 319 318 319 319 320 320 320 319 318 317 314 311 311 313 314 316 316 316 317 318 319 320 320 320 321
327 328 329 330 331 332 332 330 326 321 318 320 321 320 320 317 313 314 313 312 311 311 311 310 308 307 306 306 305 305 305 305 307 310 313 314 314 314 314 313 312 312 312 312 314 316 318 318 319 321 321 320 319 319 320 321 320 320 318 317 316 316 317 319 320 320 317 314 313 311 309 307 308 309 311 313 314 315 317 317 317 318 320 320 319
Wind_Speed
25 24 24 23 22 22 21 21 21 21 21 21 20 19 19 19 19 19 18 18 18 19 19 19 18 17 17 17 16 16 15 15 14 14 15 16 15 15 14 13 13 13 12 11 11 10 9 9 9 8 8 8 8 9 9 9 9 9 10 10 9 9 9 10 10 12 12 11 13 16 19 20 19 18 18 18 18 17 17 19 19 20 20 19 18
25 24 24 24 22 21 21 20 20 21 21 20 20 19 18 18 18 18 17 17 18 18 18 19 18 17 16 15 15 15 14 14 14 14 14 15 15 14 14 13 12 12 11 9 8 9 9 10 9 9 8 8 9 9 9 8 8 8 9 9 8 9 9 9 10 12 13 13 14 16 18 19 18 17 16 17 17 16 17 18 18 19 19 18 18
22 25 24 23 22 21 20 20 20 20 20 20 19 19 18 18 17 17 17 17 17 17 17 18 17 16 15 14 13 13 13 13 12 12 13 13 14 13 13 12 12 11 9 7 6 7 8 9 10 10 9 9 10 10 9 9 9 9 10 9 9 10 9 9 10 12 13 14 15 15 16 17 17 16 16 16 15 15 16 16 17 18 18 18 18
20 24 24 24 22 20 20 20 20 19 19 19 19 19 18 18 17 17 17 16 16 16 17 17 16 15 14 12 12 12 12 12 12 11 12 12 12 12 12 12 11 10 9 8 7 6 7 9 9 10 11 11 11 11 10 10 10 10 10 10 10 10 9 9 10 11 12 16 17 15 14 16 16 15 15 15 14 14 15 15 15 16 17 17 17
20 23 24 24 22 21 20 20 19 19 18 18 18 18 18 18 17 17 16 16 15 15 16 15 14 14 13 12 11 10 10 10 11 10 11 11 11 11 10 11 10 10 9 8 7 5 6 7 8 9 11 12 12 12 11 11 11 11 11 11 11 11 10 9 9 10 13 16 17 15 13 13 14 15 14 13 13 14 14 15 14 15 16 16 17
20 23 24 24 22 21 20 19 18 18 19 18 18 18 18 17 17 17 16 15 14 14 14 14 13 12 11 11 11 10 9 9 9 9 9 9 9 9 9 9 9 9 9 8 8 7 7 6 7 8 11 13 12 12 12 12 13 13 13 13 12 11 10 9 9 9 13 15 15 15 13 12 12 13 13 12 12 13 14 14 14 14 15 15 16
20 22 23 23 22 22 20 19 18 18 19 18 18 17 17 17 17 17 16 15 14 13 12 13 12 11 11 11 11 10 9 9 8 8 9 8 8 8 8 8 8 7 8 8 8 9 7 6 7 8 10 11 11 13 14 15 15 16 15 14 13 11 9 8 7 8 13 15 15 16 14 11 10 11 12 11 11 12 13 14 14 14 14 14 15
20 21 23 23 22 22 20 19 19 19 18 18 18 17 17 17 17 17 16 14 13 12 11 11 11 10 11 12 12 11 10 10 9 9 9 8 7 7 7 8 8 7 8 8 8 8 7 6 6 6 9 10 10 14 16 17 17 17 16 14 13 11 9 8 7 7 12 14 15 17 15 11 9 9 10 11 12 12 12 12 13 13 13 13 14
20 22 23 23 22 21 20 20 19 19 18 17 17 17 17 17 17 17 15 14 13 12 11 10 10 10 11 12 12 12 12 11 11 10 9 8 7 7 7 7 7 7 7 7 6 5 5 5 4 3 7 9 9 15 17 18 18 17 16 15 13 11 10 9 8 6 10 13 13 14 13 12 9 9 9 10 11 11 11 11 12 12 12 13 13
21 23 23 23 23 21 20 20 20 19 18 17 17 17 18 17 17 17 15 14 13 12 11 10 9 10 11 12 12 12 13 12 11 10 9 9 8 7 7 7 7 7 7 6 5 4 4 3 2 0 3 7 9 15 18 18 18 18 16 15 13 11 10 9 7 7 8 10 10 9 10 10 9 9 8 9 10 10 10 10 11 11 12 12 12
22 23 23 23 23 21 21 20 20 19 18 18 17 18 18 18 18 17 16 15 13 12 11 10 10 10 11 12 12 12 12 11 10 10 9 9 8 8 7 7 6 6 6 6 6 5 4 3 2 1 2 5 9 15 19 19 19 18 17 15 13 11 10 8 7 8 7 7 7 6 8 9 9 9 8 7 9 10 10 9 9 10 11 11 12
24 24 23 23 23 21 21 20 19 19 19 19 18 18 18 19 18 18 17 15 14 13 12 11 11 11 11 11 11 12 11 10 9 9 8 8 8 8 8 7 6 6 6 6 6 5 5 4 3 3 3 2 8 15 19 21 21 19 17 15 12 10 8 7 7 7 7 6 5 5 7 8 9 9 8 7 8 10 9 8 8 10 11 11 11
24 23 23 23 22 21 20 19 19 18 19 19 19 19 19 19 19 18 17 16 15 14 13 12 12 11 11 11 11 11 10 9 8 7 7 7 8 8 7 7 6 6 5 5 6 5 5 4 4 5 5 4 6 13 19 23 22 20 18 15 12 9 7 7 6 6 7 6 4 4 5 7 8 8 8 7 8 10 9 8 8 9 10 10 10
23 23 23 23 22 21 20 19 18 19 19 19 19 19 19 19 19 18 18 17 16 15 14 13 13 12 11 11 10 10 9 8 6 6 6 6 7 7 6 6 6 6 5 5 6 5 4 3 3 4 5 6 5 10 18 23 22 20 18 15 12 9 8 6 5 5 6 5 3 3 4 5 7 8 8 7 8 9 9 7 7 7 9 9 10
21 23 23 23 22 21 20 19 19 19 20 19 19 19 19 19 18 18 18 17 17 16 15 14 13 12 12 11 10 9 8 6 5 5 4 5 5 5 5 5 5 5 5 5 6 6 5 3 2 1 3 6 6 8 15 22 22 21 19 16 14 11 9 7 6 4 5 3 2 2 3 4 7 8 8 7 7 9 9 8 7 6 7 9 10
21 23 24 24 23 22 21 20 19 19 20 20 19 20 19 19 18 18 18 18 17 16 15 13 13 12 12 11 10 9 7 5 4 4 4 4 4 4 3 3 4 4 5 5 5 5 4 3 3 3 1 3 5 7 12 21 23 21 19 17 15 12 10 7 5 4 3 2 3 2 2 3 7 9 8 8 7 8 9 9 7 6 6 8 10
23 24 25 24 23 22 22 21 20 19 19 20 19 19 18 18 18 18 18 17 16 15 14 13 12 11 11 10 10 9 7 6 5 4 3 2 3 3 3 2 3 3 4 4 4 3 2 2 3 4 3 1 4 7 11 19 24 21 19 17 14 12 10 7 5 4 3 2 3 3 2 2 7 9 9 8 7 8 9 9 8 7 6 7 8
24 24 24 23 23 23 23 22 20 19 19 19 19 18 18 18 17 17 16 16 15 14 12 11 11 10 10 10 9 9 7 7 6 5 3 3 2 2 2 2 2 2 3 3 3 2 1 1 2 3 3 3 4 8 11 18 24 22 19 17 14 12 10 7 5 5 3 3 4 4 3 1 7 9 9 8 7 8 9 9 8 7 6 6 8
23 22 22 22 23 24 23 21 20 19 19 18 18 18 18 17 17 16 15 14 13 12 11 10 10 10 9 9 9 8 7 7 6 5 5 4 3 2 2 2 1 2 2 2 2 1 1 2 2 3 4 3 4 9 11 18 24 21 19 17 14 12 10 8 5 4 4 4 5 6 3 0 5 7 8 9 8 8 8 9 8 7 6 6 7
22 21 22 22 23 23 22 20 19 19 18 18 18 18 18 17 16 15 13 12 12 11 10 10 9 9 9 9 10 9 8 8 7 6 5 4 4 3 3 3 3 3 3 2 2 1 2 3 3 3 4 3 5 9 12 19 24 21 19 16 13 12 11 8 5 5 5 6 6 7 5 2 3 5 6 8 8 8 8 8 8 8 7 6 7
22 23 23 23 23 22 21 20 20 19 19 18 17 17 17 16 15 14 14 12 11 11 9 9 8 7 8 9 10 8 7 7 6 6 5 4 4 4 4 4 4 4 4 3 2 1 3 4 4 3 4 4 6 10 12 19 24 21 18 15 12 11 10 7 5 6 6 6 7 7 7 4 1 4 6 8 8 8 8 8 9 8 7 7 6
24 25 25 24 23 23 22 21 21 20 19 17 16 16 16 16 15 14 13 12 12 11 8 6 6 6 6 6 6 5 7 7 5 5 5 4 3 3 3 3 5 5 4 3 2 2 4 6 5 4 5 6 8 11 12 18 24 21 17 13 10 10 9 8 6 6 5 4 5 7 7 6 2 2 5 7 7 7 7 7 8 8 7 7 7
27 27 26 23 22 23 21 20 20 19 18 17 16 16 16 16 15 13 12 13 11 8 6 4 5 6 6 4 5 5 6 7 6 6 6 5 4 3 3 3 4 5 5 4 3 3 5 7 7 7 7 9 11 13 13 17 23 21 17 11 8 8 9 8 7 5 4 3 4 6 7 6 3 2 4 7 7 6 6 6 7 7 7 6 6
28 26 25 23 22 21 20 19 19 18 17 16 15 14 15 14 13 11 10 11 8 6 7 6 6 7 7 4 6 6 5 6 5 5 5 5 5 5 5 5 5 6 5 5 4 5 6 8 9 9 10 13 15 15 15 16 21 21 16 11 7 7 7 7 6 5 3 3 4 6 6 6 5 3 3 7 8 6 6 6 6 6 6 5 5
27 25 24 23 22 19 19 20 18 18 16 15 15 13 13 12 11 9 10 9 7 6 7 7 6 7 8 5 5 6 5 5 3 4 4 3 4 5 6 6 7 6 6 5 5 6 7 9 11 12 14 16 16 16 16 17 19 19 15 10 7 6 6 6 5 4 2 2 4 5 5 5 6 6 4 5 7 6 5 6 6 5 5 5 4
24 23 23 22 21 18 18 18 16 16 15 13 13 12 12 12 12 11 11 9 7 7 7 7 6 8 9 7 5 5 7 6 6 7 5 4 5 6 7 8 8 7 6 6 7 7 8 9 11 14 17 17 15 16 15 16 16 15 13 10 9 8 7 6 5 5 2 1 3 4 5 6 6 7 6 3 4 6 6 6 6 5 5 5 4
21 21 21 21 20 18 16 15 14 14 14 13 12 14 13 11 11 11 10 9 8 8 7 6 7 9 9 9 8 7 8 8 7 8 6 5 7 7 9 8 8 8 7 8 9 9 9 11 12 16 18 15 14 15 15 15 13 11 9 8 8 10 9 6 6 5 2 0 2 3 5 7 7 6 6 4 2 4 5 6 6 5 5 5 4
19 18 19 20 19 17 16 15 15 13 13 13 13 17 15 11 11 9 8 7 7 8 9 9 9 10 10 11 10 9 10 8 7 6 6 7 8 8 10 9 9 10 10 10 11 11 11 13 15 17 17 14 13 15 15 14 12 10 8 7 7 8 7 7 7 6 3 2 2 3 4 6 6 6 6 4 3 3 4 5 5 5 5 5 5
19 19 19 20 19 17 17 16 14 12 12 12 11 12 11 11 11 9 9 8 7 9 10 12 11 11 12 13 12 11 11 10 9 9 7 8 8 9 12 13 12 13 13 12 12 12 12 14 17 18 17 15 13 14 13 12 11 9 8 9 8 6 4 5 8 8 6 5 3 3 4 5 6 6 5 5 4 3 3 4 5 5 6 6 6
22 21 20 21 21 19 17 15 14 13 12 12 10 8 8 10 10 9 11 10 9 10 11 12 11 12 13 14 15 13 12 11 12 11 9 10 10 11 13 14 13 13 13 12 12 12 12 14 16 16 16 14 12 12 12 12 12 10 10 10 8 7 6 4 6 7 7 7 5 3 4 5 5 4 4 4 4 4 3 2 3 4 5 6 7
23 22 20 21 22 19 16 14 14 14 13 12 10 7 7 9 8 8 10 10 9 9 10 10 9 12 14 14 15 12 11 12 11 11 10 11 12 12 14 14 13 13 11 11 12 11 11 12 14 15 15 14 13 13 14 14 15 14 13 12 9 8 7 6 5 6 6 6 6 4 4 4 4 4 3 3 2 2 2 2 1 2 3 3 5
24 22 22 20 20 19 16 14 14 15 14 12 10 8 7 7 6 7 8 8 8 8 8 10 10 13 15 15 17 14 12 11 10 10 8 10 14 13 13 14 13 13 11 12 14 13 12 13 14 14 15 15 15 15 15 17 18 18 17 15 12 10 8 7 6 6 6 6 6 6 5 4 3 3 2 3 3 2 1 1 0 1 2 2 3
25 23 21 18 18 19 16 14 16 15 14 12 10 11 9 7 7 6 7 7 6 7 7 9 11 13 15 18 19 15 13 12 9 9 8 10 14 12 11 12 13 14 14 15 16 15 14 14 14 14 14 15 17 17 16 18 19 19 19 17 15 13 10 8 7 7 7 6 6 6 5 4 3 2 2 3 3 4 3 1 0 1 2 2 2
23 22 20 18 18 18 15 16 17 15 13 12 11 12 11 10 10 9 7 6 6 7 7 8 11 13 17 18 15 13 14 13 10 9 10 11 12 11 11 11 11 13 15 16 17 16 15 14 13 13 13 14 16 15 15 17 18 18 19 19 18 16 13 11 10 8 7 7 7 6 6 5 4 3 2 1 1 2 2 1 1 0 0 1 1
19 21 20 19 18 16 15 16 15 15 15 14 13 11 11 11 11 9 7 6 5 5 6 6 10 14 17 15 12 13 14 13 11 10 10 10 11 11 11 11 9 10 13 15 16 16 15 14 13 13 14 14 14 13 12 14 15 16 16 17 18 16 14 12 11 9 8 7 8 7 7 7 6 5 3 2 2 2 1 1 1 0 1 0 0
19 20 21 20 18 18 18 18 16 16 18 16 14 12 11 10 7 4 1 0 1 1 2 5 8 12 15 14 13 13 13 14 14 13 11 11 12 12 13 12 10 9 10 13 14 14 14 13 13 13 14 14 13 12 12 12 13 14 14 15 16 16 15 14 12 11 9 9 9 9 9 9 9 8 6 5 4 3 3 3 3 2 2 1 0
21 22 22 20 18 18 19 20 19 18 17 16 13 12 11 9 6 5 6 4 2 3 4 4 6 10 11 12 13 12 12 14 14 14 15 16 15 15 14 12 11 10 10 12 14 14 14 14 14 13 14 14 13 13 13 12 13 13 13 14 14 14 15 15 14 13 12 12 11 11 11 11 12 11 11 9 8 6 5 5 4 4 4 3 2
23 22 21 18 16 17 17 18 19 17 16 15 12 10 11 10 9 8 7 6 4 3 4 5 6 8 9 9 10 9 8 10 11 12 15 16 15 14 13 11 11 11 11 12 13 14 15 15 14 14 15 16 14 13 14 14 13 13 13 13 12 12 12 14 15 15 14 14 13 13 12 11 12 13 13 13 12 9 8 8 7 7 7 5 4
24 21 19 17 17 18 18 18 18 17 15 13 12 12 12 12 11 9 8 7 6 5 6 5 4 6 9 8 7 7 7 9 9 9 11 12 12 12 11 10 10 9 10 12 13 14 14 14 14 14 15 16 14 12 12 14 13 12 12 11 10 10 10 11 12 13 13 13 13 13 13 13 13 14 14 15 14 13 12 10 9 9 8 7 6
23 21 20 18 20 21 20 20 18 16 15 14 13 13 14 13 11 9 7 6 5 6 6 4 4 7 8 8 8 7 8 9 9 8 9 10 11 11 10 9 9 9 9 11 13 13 14 14 15 15 14 15 14 13 12 13 11 9 8 7 7 8 9 9 10 10 11 11 12 12 13 13 14 16 16 15 15 15 14 13 12 12 11 10 8
24 21 20 22 24 23 22 21 18 17 15 14 13 13 13 12 10 8 6 5 3 3 4 3 5 8 9 11 12 10 9 8 8 7 7 7 8 8 7 7 8 9 9 10 12 13 13 15 16 15 15 15 15 14 14 12 11 9 7 6 6 7 8 8 8 8 8 9 10 12 14 14 13 15 16 16 16 17 17 16 15 14 14 12 11
27 22 23 25 27 24 23 21 18 18 16 14 13 13 11 9 9 8 7 6 4 4 3 2 7 10 11 11 12 12 11 9 8 7 6 5 5 5 6 7 8 9 9 9 11 12 12 14 15 16 16 16 15 15 15 14 12 10 8 7 6 7 8 8 8 7 6 6 7 10 14 16 15 14 13 14 15 17 19 19 17 15 15 14 13
29 25 25 27 28 26 24 22 19 19 17 15 14 13 11 10 10 9 8 7 6 5 3 2 6 9 11 11 10 10 10 9 9 8 8 7 6 6 5 6 7 7 6 7 9 11 11 12 14 15 16 16 15 15 14 14 13 10 9 8 7 7 7 7 7 5 5 4 5 7 11 15 17 15 12 11 13 15 19 19 17 15 14 15 16
31 28 28 29 30 29 27 24 21 21 18 16 15 13 12 13 12 10 9 7 5 6 4 4 8 8 8 9 8 8 8 8 8 8 9 9 8 6 5 5 5 5 4 6 7 8 9 11 12 13 15 15 12 13 14 13 12 10 9 9 8 7 6 5 5 5 5 4 5 5 6 9 13 15 14 13 13 14 15 15 15 15 15 16 18
35 33 32 32 31 31 29 25 22 22 20 17 17 16 15 16 15 14 12 10 7 6 4 6 9 9 8 7 7 7 8 8 8 8 7 7 8 7 5 5 6 6 6 6 6 6 7 8 9 10 12 12 12 14 15 13 12 11 10 7 6 6 5 6 5 5 5 5 5 6 6 4 7 11 13 14 15 15 15 14 13 11 11 14 16
38 36 34 33 32 31 29 25 23 24 21 19 19 18 17 16 16 15 14 12 9 5 4 8 11 10 8 7 6 6 7 9 9 8 6 6 7 7 6 5 6 7 7 7 7 7 6 7 7 8 8 10 11 12 12 11 12 12 11 9 6 4 4 6 6 5 6 6 7 7 6 5 4 5 7 9 12 13 14 15 14 10 8 12 15
40 38 36 34 33 31 29 26 24 24 22 20 20 19 17 15 13 12 11 10 8 7 8 9 10 9 9 8 7 7 7 8 9 10 7 5 4 5 4 4 4 6 8 7 7 7 6 7 7 7 7 7 8 8 9 9 10 10 10 10 8 6 6 7 7 7 8 9 9 8 7 6 5 4 5 6 8 9 10 12 13 12 11 14 14
41 39 37 35 34 32 29 26 25 25 23 21 20 19 17 15 13 12 10 8 9 11 12 10 9 8 8 8 8 8 8 8 8 9 9 7 5 4 3 3 5 6 7 6 5 4 5 6 6 5 4 4 5 7 8 8 8 8 8 8 7 5 6 7 6 6 7 8 8 7 7 7 6 6 7 7 8 10 10 10 10 11 12 14 15
40 39 38 36 35 33 30 27 26 25 24 23 22 20 17 14 13 12 12 11 11 13 13 10 9 8 8 8 8 9 9 9 8 8 9 8 7 5 4 4 5 6 6 4 4 4 5 5 5 4 2 3 4 6 7 7 7 6 6 6 4 3 4 4 3 3 3 4 4 4 5 6 7 7 8 9 9 10 10 10 9 10 11 12 16
38 39 38 36 35 33 30 29 28 26 25 26 25 22 19 15 14 14 15 14 14 14 13 11 10 9 9 10 9 10 10 9 8 9 9 9 8 6 5 5 4 4 4 4 4 5 4 4 4 4 4 3 3 2 3 4 4 3 3 4 3 2 3 2 2 2 1 3 5 7 9 10 9 7 7 9 9 7 7 6 7 8 8 9 13
37 38 38 36 35 34 31 30 29 26 26 27 27 24 20 17 16 18 17 15 14 14 14 12 11 11 11 11 11 11 10 9 9 9 9 8 6 5 4 3 3 3 3 3 3 4 3 2 2 3 2 2 2 2 2 3 3 2 2 2 3 3 3 3 3 3 6 9 10 11 12 12 10 8 7 6 4 3 2 2 4 4 5 7 9
Wind_Direction
166 162 159 158 161 158 156 152 148 144 142 145 147 151 149 147 146 144 142 137 133 129 130 134 134 132 130 129 131 133 134 133 130 127 122 117 113 112 111 108 107 107 113 118 120 122 126 123 117 113 111 119 132 144 147 147 144 135 135 131 124 121 121 120 127 126 109 97 89 82 80 81 83 83 82 80 78 75 74 75 77 79 80 80 77
162 161 159 158 162 158 156 151 147 144 143 147 148 153 151 151 149 147 145 140 136 130 130 134 135 134 129 126 128 132 133 133 130 127 122 117 114 112 112 110 109 109 112 114 113 115 123 127 122 117 111 115 128 140 146 148 145 140 141 139 133 130 129 124 123 114 98 90 86 82 81 81 83 84 83 80 79 79 77 76 76 79 81 81 79
159 160 159 159 162 159 155 150 145 143 144 148 150 154 154 154 153 150 147 142 137 132 132 134 136 136 133 128 128 130 132 133 130 126 122 117 114 113 113 112 111 111 113 111 107 104 115 128 127 124 116 116 125 134 141 144 146 147 148 148 143 140 140 133 121 107 97 92 86 78 79 81 81 81 81 79 79 80 80 79 80 81 82 81 81
161 159 160 161 162 160 154 148 144 144 146 149 151 155 156 157 156 153 149 144 139 134 136 137 139 139 139 137 132 131 130 132 129 125 123 119 115 115 115 115 116 116 115 108 106 100 103 119 124 125 121 118 124 133 139 140 145 148 149 151 146 145 142 136 125 111 99 89 82 75 75 77 79 80 79 80 81 80 80 79 80 81 83 84 83
162 159 161 161 162 159 153 148 145 145 148 151 153 156 158 160 159 156 151 146 142 138 138 139 141 141 143 143 141 137 130 130 129 127 126 124 121 120 121 120 121 120 117 111 108 96 87 98 111 121 122 117 122 132 136 137 139 143 147 146 142 145 144 139 132 122 104 88 79 75 75 75 76 79 77 81 84 81 80 78 78 78 81 83 84
164 160 160 161 160 156 153 149 148 148 150 153 155 157 158 162 161 158 155 149 146 142 139 138 139 141 143 143 144 141 133 129 126 125 125 126 127 126 125 124 124 121 116 112 106 100 89 82 98 118 121 114 119 130 131 134 137 141 143 142 142 143 145 143 139 133 113 93 78 73 73 77 74 78 79 79 82 82 82 80 77 75 76 79 81
164 160 160 161 159 155 154 151 150 150 150 154 156 158 159 162 161 160 159 153 150 145 140 136 135 136 137 139 140 139 136 133 127 125 124 127 130 131 131 128 128 124 119 117 114 115 109 98 103 107 108 103 116 130 130 135 138 141 142 142 143 140 143 138 139 143 120 100 81 74 72 77 78 77 81 82 80 78 78 78 77 77 77 78 79
163 161 161 160 158 155 155 153 152 151 151 153 156 160 161 161 160 160 160 156 153 148 142 134 129 128 130 134 136 135 134 133 131 127 127 131 134 138 139 138 137 134 131 128 126 124 119 126 131 107 94 87 113 133 132 137 140 142 144 140 139 138 143 137 149 153 118 102 84 77 71 74 84 77 76 82 81 76 74 76 78 81 81 79 81
164 160 161 160 157 156 156 154 152 151 151 153 157 160 162 161 159 159 159 158 156 150 144 133 125 122 125 128 128 126 125 126 127 126 127 129 133 139 142 144 142 140 139 137 134 132 129 153 176 122 95 85 112 139 137 140 142 142 142 139 142 145 153 160 164 139 105 101 87 78 70 69 87 85 75 79 81 80 77 75 77 82 85 82 82
165 161 162 161 157 157 157 155 152 151 151 153 157 158 160 159 156 156 157 158 157 152 144 133 124 122 124 124 122 121 120 121 122 120 118 117 118 125 132 141 143 143 144 145 144 146 151 172 204 167 110 93 114 143 141 142 142 141 142 141 145 151 166 174 151 112 101 103 89 79 72 72 92 94 86 85 86 85 81 78 77 79 85 85 84
164 161 162 161 158 158 157 155 153 151 150 151 152 153 155 154 153 154 156 157 156 151 142 134 128 126 125 123 123 122 121 119 119 115 111 108 107 110 118 127 137 143 144 146 151 159 168 181 214 214 159 112 121 146 146 141 142 141 142 141 143 158 173 163 129 115 109 99 90 80 77 86 103 104 98 94 92 89 85 83 81 82 86 88 86
161 162 162 162 159 158 158 155 152 149 148 148 147 147 147 149 151 153 153 154 152 148 141 136 133 131 128 127 127 124 121 119 118 115 109 105 105 105 107 114 128 141 145 145 151 162 176 190 212 226 222 167 129 148 151 142 142 144 141 141 147 165 170 144 127 121 105 93 91 80 86 104 113 113 111 103 99 95 90 89 86 87 88 90 90
159 162 163 162 159 159 158 153 150 147 146 146 145 143 143 145 147 149 149 149 148 145 141 139 138 136 133 131 130 127 125 122 119 114 107 103 104 103 101 107 117 130 141 147 156 163 179 194 214 232 249 235 144 148 157 148 145 147 142 145 155 170 169 143 131 119 100 87 81 78 97 120 122 121 123 119 111 103 99 96 92 91 91 92 92
160 163 163 163 160 159 157 153 151 147 148 148 146 143 142 142 142 144 144 145 144 142 142 142 143 141 138 136 135 133 130 125 122 115 107 105 104 103 101 104 109 117 129 139 150 149 156 170 207 233 245 235 173 149 160 157 151 150 147 148 154 173 182 157 142 126 99 80 69 85 107 130 139 135 134 136 124 113 112 106 99 98 96 96 93
163 163 163 165 161 159 158 156 155 152 151 150 148 146 143 141 139 140 142 144 143 142 143 145 146 144 143 143 141 138 134 131 128 125 117 110 105 102 99 104 112 116 123 132 143 138 130 125 108 220 242 232 194 157 162 163 158 153 152 151 155 177 191 168 154 140 100 71 48 81 101 125 148 148 143 146 139 125 122 117 109 107 103 102 98
164 164 165 166 162 160 161 161 161 156 153 152 150 146 143 140 138 141 142 142 141 143 145 146 148 148 149 149 148 143 142 141 134 135 129 118 111 107 97 102 118 121 123 129 146 147 135 122 91 68 61 223 195 165 162 165 161 156 156 156 160 183 196 177 159 137 98 47 19 35 61 122 152 154 151 156 151 136 130 127 124 122 115 109 104
165 166 165 166 164 163 165 165 163 159 155 151 148 144 143 142 142 143 141 140 141 144 146 148 149 149 152 152 152 150 152 153 148 149 147 140 124 119 111 110 124 126 120 120 142 155 143 121 102 71 60 134 170 162 162 165 164 160 159 156 161 186 199 182 159 133 101 56 21 18 21 132 161 162 160 164 163 149 139 135 133 130 123 114 108
164 167 166 166 166 167 169 167 165 161 157 150 145 146 146 146 145 141 138 138 141 146 147 150 153 152 153 153 154 155 157 158 157 164 170 173 154 142 142 134 137 131 120 117 136 150 134 118 113 83 64 91 141 153 159 162 164 164 160 155 161 182 194 184 162 138 99 55 23 19 22 138 169 173 169 168 174 164 147 141 136 131 125 117 113
161 166 166 168 169 170 172 169 168 163 159 153 149 150 149 150 144 137 134 138 144 148 152 158 161 158 154 152 155 156 159 162 166 177 183 183 169 166 180 175 177 157 134 121 126 130 143 148 127 86 67 78 127 144 154 159 163 163 158 154 161 178 187 181 163 130 82 40 17 18 23 201 182 184 178 171 180 177 157 146 139 133 129 123 121
158 163 165 170 172 172 171 170 170 166 163 157 155 153 152 153 143 138 140 147 152 153 159 166 169 166 160 157 158 159 165 170 173 188 190 187 179 178 199 197 189 173 152 128 112 128 158 165 144 91 69 76 121 138 147 159 163 161 156 153 160 179 186 180 160 113 77 47 29 25 24 9 203 201 193 181 183 186 169 150 142 138 134 130 128
158 164 166 170 171 171 170 171 170 167 165 160 158 154 158 155 145 149 153 157 161 164 169 173 178 176 171 165 164 165 175 181 176 193 197 188 186 182 199 194 183 177 160 138 110 127 155 165 155 111 89 87 116 133 142 159 164 160 154 153 164 184 190 177 145 105 79 52 41 35 27 18 264 218 208 193 189 194 180 158 148 142 139 139 138
161 167 170 170 169 171 171 171 169 167 165 160 158 159 166 159 153 160 159 165 171 171 170 172 189 195 193 173 171 178 182 191 183 195 205 196 194 174 189 197 183 174 163 147 127 142 158 162 155 128 110 101 115 129 137 158 165 160 152 151 163 179 179 162 131 102 78 48 40 39 32 25 22 204 206 199 195 199 190 171 155 145 144 145 147
164 168 170 168 168 171 170 169 166 166 164 159 159 164 172 165 161 162 162 175 178 174 165 169 196 201 210 184 186 199 181 192 197 201 208 202 204 181 164 174 177 170 164 160 150 157 163 163 155 140 122 113 120 126 131 153 164 161 152 144 151 162 161 148 123 107 76 40 30 35 36 35 49 140 197 202 196 200 198 182 161 148 148 151 152
163 165 164 165 169 169 164 163 161 163 162 158 159 162 171 171 165 159 171 188 187 187 180 184 200 199 206 186 188 209 194 194 201 210 218 206 205 194 170 159 164 171 170 167 169 169 169 167 158 147 131 122 123 124 128 147 161 163 156 144 146 158 157 141 120 113 84 35 23 34 45 48 58 83 165 197 196 199 199 186 173 154 151 154 156
159 159 160 163 166 162 160 161 160 160 156 157 161 160 165 167 162 166 183 188 182 195 190 185 196 198 201 192 186 203 206 209 228 227 215 190 187 184 181 178 168 174 183 175 178 175 170 167 159 149 135 126 122 119 124 141 158 167 169 164 161 169 165 145 124 122 109 30 22 40 57 67 69 74 97 170 190 197 197 187 182 170 160 161 163
158 154 155 160 161 161 162 160 157 157 155 158 165 167 164 162 168 183 190 178 170 184 186 178 186 199 203 207 198 193 201 212 238 239 213 158 159 175 180 188 179 174 184 173 169 167 163 165 162 152 140 132 126 123 127 136 149 162 171 176 178 184 186 166 138 140 145 16 31 52 67 77 78 79 81 106 172 195 200 193 189 183 176 175 179
159 152 153 160 160 159 161 160 161 164 168 170 179 186 175 164 177 194 197 184 180 183 187 190 199 206 210 218 209 199 205 208 219 232 230 174 158 180 185 185 181 170 174 168 159 154 155 162 159 154 148 142 137 136 138 139 144 148 149 160 178 187 191 180 150 148 169 55 79 75 74 78 78 81 82 82 123 181 197 202 202 196 192 190 195
160 157 159 163 161 156 155 161 168 170 176 178 192 198 182 170 183 199 206 202 209 210 214 221 218 215 221 226 218 211 209 207 203 203 219 198 171 184 186 180 180 172 173 173 163 158 158 160 156 154 154 152 149 146 146 148 151 148 145 158 176 185 196 192 169 162 177 169 134 102 82 78 77 79 80 84 103 141 179 201 208 207 209 208 209
163 166 166 164 161 156 154 162 172 171 169 170 189 205 195 184 184 190 205 218 240 238 232 234 233 226 227 229 225 223 217 206 194 187 199 202 191 192 182 174 180 178 178 179 170 165 164 163 161 160 161 160 156 151 151 157 158 154 165 179 180 178 191 199 187 183 175 168 158 118 89 79 82 85 82 84 93 108 144 181 199 212 222 222 224
167 167 167 165 163 161 162 167 170 167 161 164 186 211 210 199 192 196 207 217 240 243 235 236 237 231 233 231 222 219 221 208 186 187 204 205 204 202 188 179 181 181 183 185 178 172 170 170 171 168 168 166 158 159 166 172 172 171 180 183 182 182 178 175 194 197 177 162 156 129 100 95 96 97 95 92 92 93 108 153 188 208 221 225 230
169 167 166 166 166 164 168 170 164 164 167 172 181 196 214 216 202 192 199 207 226 238 239 237 229 227 234 231 222 213 213 209 187 190 206 201 204 206 195 186 182 183 185 193 191 183 177 175 174 168 169 170 165 173 184 188 187 186 185 183 188 197 192 184 188 191 176 163 162 146 117 114 114 112 105 98 95 91 91 105 159 200 210 213 219
168 165 164 164 166 165 170 174 168 168 172 178 176 176 209 227 189 171 192 209 221 233 240 237 225 225 231 225 218 212 209 209 190 191 204 199 202 201 191 181 178 184 189 199 197 191 186 180 175 167 167 172 178 187 193 196 197 196 193 192 197 203 205 208 207 195 182 172 169 159 140 132 127 125 113 92 79 68 69 84 144 202 209 204 199
166 163 165 164 163 165 170 170 167 167 169 178 176 170 187 207 203 205 219 223 224 226 236 242 231 217 220 222 214 205 207 211 195 190 200 207 205 194 181 172 174 183 190 198 197 194 195 188 184 179 174 176 182 190 196 199 203 204 202 202 204 205 206 215 224 218 203 190 176 162 162 172 163 149 134 107 76 53 49 55 158 221 216 204 192
165 162 164 160 159 161 163 163 165 165 166 177 179 179 196 212 224 237 241 244 245 241 249 247 233 217 215 222 214 200 203 207 210 202 193 205 209 194 182 176 178 186 188 194 198 199 203 200 197 195 190 186 186 191 197 200 206 209 207 208 209 207 207 215 226 230 220 205 189 177 182 189 183 171 158 124 46 28 27 35 54 1 247 211 196
171 165 159 155 156 159 161 166 168 167 170 182 190 197 214 220 227 239 247 265 272 258 251 221 216 219 221 222 211 204 203 201 209 208 191 199 211 211 208 203 198 196 192 197 202 204 209 210 206 206 203 198 197 201 204 208 211 208 206 211 210 206 207 213 220 228 229 220 211 201 195 190 189 191 204 247 290 321 318 305 306 122 117 120 216
173 165 158 157 160 164 168 174 181 180 177 185 196 205 215 215 214 211 160 302 343 143 193 200 206 209 215 216 204 201 200 196 198 194 189 199 214 224 223 217 214 211 204 207 211 213 218 219 213 211 211 208 211 215 218 222 220 214 210 210 210 211 213 214 214 218 221 223 225 221 213 207 204 206 216 231 245 266 277 274 272 240 187 161 163
171 169 170 175 175 175 179 184 189 190 186 189 197 204 208 200 185 157 122 114 100 112 144 165 183 187 195 200 191 190 197 197 190 181 182 194 212 225 226 224 227 229 222 216 219 225 230 230 222 217 216 217 221 226 230 226 220 220 214 206 209 214 216 216 217 220 222 225 227 225 223 221 219 220 223 226 224 231 245 255 266 260 245 231 198
175 179 184 191 188 185 185 184 183 186 187 185 178 177 180 177 175 168 147 136 119 103 108 119 153 170 173 176 176 185 196 194 188 178 177 189 207 219 222 225 230 236 234 226 225 231 237 238 232 228 224 222 227 236 236 227 222 228 226 221 222 219 215 217 220 223 226 230 234 232 229 228 228 229 233 233 226 219 223 234 252 257 249 235 211
180 187 195 201 196 188 179 173 171 175 176 165 151 147 147 146 151 153 152 148 130 108 91 88 118 136 143 154 170 186 183 176 180 179 179 191 209 220 224 228 231 234 233 231 234 237 240 241 236 234 231 230 236 237 229 225 227 229 228 227 226 220 218 221 223 225 227 232 238 239 240 239 237 235 237 236 232 226 221 221 234 244 241 234 224
189 195 202 206 197 187 177 169 167 169 167 155 142 135 136 140 148 150 152 153 144 135 122 104 93 99 118 140 155 177 181 173 172 180 193 207 220 228 231 234 236 233 228 232 239 241 242 243 237 234 234 239 238 224 211 213 216 213 216 224 222 224 232 238 238 237 238 241 242 243 245 246 244 242 238 234 233 234 228 220 223 229 230 232 232
194 203 208 202 192 186 180 172 169 171 165 153 139 133 138 146 157 161 162 165 178 183 160 142 134 124 120 127 142 159 164 159 154 165 193 211 217 218 216 222 230 230 227 225 228 234 239 240 236 233 236 241 238 223 208 205 205 205 214 232 242 248 257 260 261 259 258 257 254 251 247 245 244 246 243 236 233 234 232 226 223 224 224 228 232
197 207 208 197 189 188 187 181 177 175 166 151 140 137 137 141 151 159 166 167 183 217 207 156 147 145 140 131 137 151 156 157 157 167 188 197 202 203 202 210 216 220 224 220 219 225 233 238 237 235 235 234 232 225 212 204 207 210 219 238 256 265 268 271 278 276 267 267 268 259 249 241 236 239 245 244 239 235 235 235 231 231 230 228 230
200 203 203 198 192 194 197 192 187 180 168 152 145 144 141 145 156 167 177 175 182 204 206 183 170 158 155 153 148 156 171 182 186 198 209 205 201 201 201 205 209 215 221 219 219 222 228 235 238 238 236 229 225 225 215 209 213 215 231 249 253 262 268 272 281 276 267 287 300 281 256 243 235 231 237 246 247 242 239 241 242 246 245 238 233
198 199 201 202 197 198 202 197 191 186 173 157 154 155 151 157 171 183 192 197 198 193 175 178 194 189 180 181 184 185 195 199 192 196 206 206 197 189 187 187 191 194 195 203 210 217 223 228 231 232 233 231 230 228 218 215 220 223 238 250 248 258 267 269 272 266 273 300 327 327 294 257 241 235 236 245 255 255 250 247 245 248 253 254 248
197 200 201 203 201 202 203 199 192 187 177 165 163 166 165 171 183 192 199 205 207 199 178 159 169 179 184 190 194 183 182 180 168 164 174 183 177 168 166 170 174 171 168 176 181 189 202 210 217 221 227 232 232 230 223 219 223 225 230 239 244 254 263 274 282 279 278 294 319 333 335 302 258 245 244 248 257 265 268 263 250 242 254 264 262
198 201 202 204 203 202 203 201 193 186 181 173 172 178 181 186 191 195 198 203 207 205 178 146 141 147 153 157 165 167 176 180 178 175 162 158 162 156 154 162 171 167 159 158 157 160 171 182 195 200 208 218 221 225 227 223 221 220 221 224 226 241 265 282 293 297 292 292 303 316 330 334 302 266 257 255 258 264 271 272 267 262 273 275 264
197 198 201 203 202 201 203 203 195 189 187 181 180 186 191 195 200 200 197 203 206 182 157 142 131 128 129 135 148 160 175 184 192 197 185 169 158 149 151 149 154 157 154 156 153 150 161 169 177 182 190 206 213 218 224 225 223 222 225 228 230 244 266 279 286 293 292 291 296 297 299 310 315 303 288 279 273 269 271 277 279 275 272 273 264
194 195 198 201 201 200 200 203 199 194 193 190 188 191 194 197 199 196 194 205 203 171 154 142 133 131 127 128 134 142 154 166 178 186 184 183 176 172 176 135 130 146 153 157 153 149 162 162 158 164 178 198 209 218 222 225 227 227 229 233 236 246 260 270 272 278 286 293 300 290 275 279 290 297 293 287 285 284 284 285 286 278 260 255 259
195 197 199 200 201 199 200 203 201 198 198 196 194 194 198 199 193 191 191 194 188 168 157 151 145 144 134 126 125 127 139 155 165 166 164 169 177 188 190 160 137 139 146 150 140 133 145 147 138 136 150 176 196 213 219 218 222 225 220 220 226 240 252 255 249 255 274 302 318 316 300 285 278 279 283 281 280 288 295 292 292 286 263 252 259
198 200 201 201 201 199 200 203 202 201 200 199 199 199 201 198 190 192 190 182 177 170 165 162 157 151 138 127 123 120 126 140 154 160 160 161 169 173 174 175 178 178 177 170 157 147 142 138 130 124 122 120 129 159 197 201 201 196 188 198 218 240 251 245 227 239 300 325 319 319 320 314 308 303 296 291 290 299 308 298 300 294 269 263 266
201 203 204 204 204 204 204 206 205 203 200 199 200 201 201 198 193 193 188 177 174 177 175 172 166 156 141 130 125 123 123 125 136 151 162 167 165 160 158 164 167 183 194 185 182 187 184 180 170 160 157 128 102 105 130 153 153 155 197 234 258 264 269 267 257 280 306 313 308 307 316 322 328 340 345 342 329 327 340 289 302 306 264 262 268